Time,TemperatureF,DewpointF,PressureIn,WindDirection,WindDirectionDegrees,WindSpeedMPH,WindSpeedGustMPH,Humidity,HourlyPrecipIn,Conditions,Clouds,dailyrainin,SoftwareType,DateUTC
2013-08-19 00:00:00,77.4,66.9,29.26,ENE,69,0.0,0.0,70,0.01,,---,0.06,VWS V14.01,2013-08-19 07:00:00,
2013-08-19 00:05:00,76.8,69.1,29.26,ENE,69,0.0,0.0,77,0.02,,---,0.01,VWS V14.01,2013-08-19 07:05:00,
2013-08-19 00:10:00,76.8,69.8,29.26,ENE,71,0.0,0.0,79,0.02,,---,0.01,VWS V14.01,2013-08-19 07:10:00,
2013-08-19 00:15:00,76.8,69.8,29.26,SE,130,0.0,2.0,79,0.02,,---,0.01,VWS V14.01,2013-08-19 07:15:00,
2013-08-19 00:20:00,76.7,69.7,29.26,ENE,78,0.0,1.0,79,0.02,,---,0.01,VWS V14.01,2013-08-19 07:20:00,
2013-08-19 00:25:00,76.7,69.7,29.26,East,88,0.0,0.0,79,0.01,,---,0.01,VWS V14.01,2013-08-19 07:25:00,
2013-08-19 00:30:00,76.8,68.7,29.25,NE,47,0.0,0.0,76,0.01,,---,0.01,VWS V14.01,2013-08-19 07:30:00,
2013-08-19 00:35:00,76.7,68.9,29.25,NNE,20,0.0,0.0,77,0.01,,---,0.01,VWS V14.01,2013-08-19 07:35:00,
2013-08-19 00:40:00,76.3,68.6,29.25,NE,35,0.0,0.0,77,0.01,,---,0.01,VWS V14.01,2013-08-19 07:40:00,
2013-08-19 00:45:00,76.0,68.3,29.24,NNE,27,0.0,0.0,77,0.01,,---,0.01,VWS V14.01,2013-08-19 07:45:00,
2013-08-19 00:50:00,75.4,67.7,29.24,NNE,28,0.0,0.0,77,0.01,,---,0.01,VWS V14.01,2013-08-19 07:50:00,
2013-08-19 00:55:00,75.4,67.7,29.24,ENE,69,0.0,0.0,77,0.01,,---,0.01,VWS V14.01,2013-08-19 07:55:00,
2013-08-19 01:00:00,75.8,67.3,29.26,South,184,7.0,7.0,75,0.01,,---,0.01,VWS V14.01,2013-08-19 08:00:00,
2013-08-19 01:05:00,76.3,67.8,29.26,South,178,7.0,14.0,75,0.01,,---,0.01,VWS V14.01,2013-08-19 08:05:00,
2013-08-19 01:10:00,75.8,67.3,29.26,South,178,8.0,11.0,75,0.00,,---,0.01,VWS V14.01,2013-08-19 08:10:00,
2013-08-19 01:15:00,75.8,67.3,29.28,South,178,8.0,8.0,75,0.00,,---,0.01,VWS V14.01,2013-08-19 08:15:00,
2013-08-19 01:20:00,75.8,67.3,29.28,South,172,1.0,8.0,75,0.00,,---,0.01,VWS V14.01,2013-08-19 08:20:00,
2013-08-19 01:25:00,75.4,66.9,29.28,SSE,152,1.0,5.0,75,0.01,,---,0.02,VWS V14.01,2013-08-19 08:25:00,
2013-08-19 01:30:00,75.1,66.6,29.27,SSE,160,4.0,8.0,75,0.01,,---,0.02,VWS V14.01,2013-08-19 08:30:00,
2013-08-19 01:35:00,75.1,67.0,29.27,South,186,0.0,4.0,76,0.01,,---,0.02,VWS V14.01,2013-08-19 08:35:00,
2013-08-19 01:40:00,74.9,66.8,29.27,South,174,0.0,0.0,76,0.01,,---,0.02,VWS V14.01,2013-08-19 08:40:00,
2013-08-19 01:45:00,74.9,66.8,29.27,WSW,246,5.0,5.0,76,0.01,,---,0.02,VWS V14.01,2013-08-19 08:45:00,
2013-08-19 01:50:00,75.3,66.1,29.27,SW,232,0.0,5.0,73,0.01,,---,0.02,VWS V14.01,2013-08-19 08:50:00,
2013-08-19 01:55:00,75.4,66.2,29.27,SW,232,0.0,0.0,73,0.01,,---,0.02,VWS V14.01,2013-08-19 08:55:00,
2013-08-19 02:00:00,75.4,66.2,29.25,NW,308,3.0,5.0,73,0.01,,---,0.02,VWS V14.01,2013-08-19 09:00:00,
2013-08-19 02:05:00,75.6,66.3,29.25,WNW,291,0.0,3.0,73,0.01,,---,0.02,VWS V14.01,2013-08-19 09:05:00,
2013-08-19 02:10:00,75.8,66.5,29.25,North,0,2.0,2.0,73,0.01,,---,0.02,VWS V14.01,2013-08-19 09:10:00,
2013-08-19 02:15:00,76.0,66.7,29.24,North,0,1.0,5.0,73,0.01,,---,0.02,VWS V14.01,2013-08-19 09:15:00,
2013-08-19 02:20:00,76.0,66.7,29.24,NNW,335,0.0,3.0,73,0.01,,---,0.02,VWS V14.01,2013-08-19 09:20:00,
2013-08-19 02:25:00,76.0,66.7,29.24,North,353,0.0,2.0,73,0.01,,---,0.02,VWS V14.01,2013-08-19 09:25:00,
2013-08-19 02:30:00,76.0,67.1,29.24,NW,319,0.0,0.0,74,0.00,,---,0.02,VWS V14.01,2013-08-19 09:30:00,
2013-08-19 02:35:00,76.0,67.1,29.24,NW,320,0.0,0.0,74,0.00,,---,0.02,VWS V14.01,2013-08-19 09:35:00,
2013-08-19 02:40:00,75.8,67.3,29.24,NW,319,0.0,0.0,75,0.00,,---,0.02,VWS V14.01,2013-08-19 09:40:00,
2013-08-19 02:45:00,75.8,67.7,29.22,NW,319,0.0,0.0,76,0.00,,---,0.02,VWS V14.01,2013-08-19 09:45:00,
2013-08-19 02:50:00,75.8,67.7,29.22,NW,320,0.0,0.0,76,0.00,,---,0.02,VWS V14.01,2013-08-19 09:50:00,
2013-08-19 02:55:00,75.8,67.7,29.22,SE,126,0.0,0.0,76,0.00,,---,0.02,VWS V14.01,2013-08-19 09:55:00,
2013-08-19 03:00:00,75.6,68.3,29.21,South,172,2.0,2.0,78,0.00,,---,0.02,VWS V14.01,2013-08-19 10:00:00,
2013-08-19 03:05:00,75.4,68.1,29.21,SE,134,0.0,2.0,78,0.00,,---,0.02,VWS V14.01,2013-08-19 10:05:00,
2013-08-19 03:10:00,75.3,68.3,29.21,SW,217,0.0,3.0,79,0.00,,---,0.02,VWS V14.01,2013-08-19 10:10:00,
2013-08-19 03:15:00,75.3,68.3,29.20,SW,217,0.0,0.0,79,0.00,,---,0.02,VWS V14.01,2013-08-19 10:15:00,
2013-08-19 03:20:00,75.3,68.3,29.20,SW,216,0.0,0.0,79,0.00,,---,0.02,VWS V14.01,2013-08-19 10:20:00,
2013-08-19 03:25:00,75.3,68.3,29.20,SW,233,0.0,0.0,79,0.00,,---,0.02,VWS V14.01,2013-08-19 10:25:00,
2013-08-19 03:30:00,75.3,68.3,29.21,SW,230,0.0,0.0,79,0.00,,---,0.02,VWS V14.01,2013-08-19 10:30:00,
2013-08-19 03:35:00,75.3,68.3,29.21,South,181,0.0,0.0,79,0.00,,---,0.02,VWS V14.01,2013-08-19 10:35:00,
2013-08-19 03:40:00,75.3,68.7,29.21,SE,136,0.0,0.0,80,0.00,,---,0.02,VWS V14.01,2013-08-19 10:40:00,
2013-08-19 03:45:00,75.1,68.5,29.22,ESE,121,4.0,4.0,80,0.00,,---,0.02,VWS V14.01,2013-08-19 10:45:00,
2013-08-19 03:50:00,75.1,68.5,29.22,ESE,109,0.0,4.0,80,0.00,,---,0.02,VWS V14.01,2013-08-19 10:50:00,
2013-08-19 03:55:00,75.3,68.7,29.22,SSE,154,0.0,3.0,80,0.00,,---,0.02,VWS V14.01,2013-08-19 10:55:00,
2013-08-19 04:00:00,75.4,68.8,29.22,SSE,148,3.0,3.0,80,0.00,,---,0.02,VWS V14.01,2013-08-19 11:00:00,
2013-08-19 04:05:00,75.4,67.3,29.22,South,178,2.0,3.0,76,0.00,,---,0.02,VWS V14.01,2013-08-19 11:05:00,
2013-08-19 04:10:00,75.4,67.3,29.22,SW,229,0.0,5.0,76,0.00,,---,0.02,VWS V14.01,2013-08-19 11:10:00,
2013-08-19 04:15:00,75.4,67.3,29.24,SE,143,0.0,0.0,76,0.00,,---,0.02,VWS V14.01,2013-08-19 11:15:00,
2013-08-19 04:20:00,75.4,67.3,29.24,SE,141,0.0,0.0,76,0.00,,---,0.02,VWS V14.01,2013-08-19 11:20:00,
2013-08-19 04:25:00,75.3,67.2,29.24,SE,143,0.0,0.0,76,0.00,,---,0.02,VWS V14.01,2013-08-19 11:25:00,
2013-08-19 04:30:00,75.3,67.6,29.23,WSW,241,0.0,0.0,77,0.00,,---,0.02,VWS V14.01,2013-08-19 11:30:00,
2013-08-19 04:35:00,75.3,68.0,29.23,NW,308,0.0,3.0,78,0.00,,---,0.02,VWS V14.01,2013-08-19 11:35:00,
2013-08-19 04:40:00,75.1,67.8,29.23,NNW,328,1.0,1.0,78,0.00,,---,0.02,VWS V14.01,2013-08-19 11:40:00,
2013-08-19 04:45:00,75.1,67.8,29.24,NNW,328,0.0,3.0,78,0.00,,---,0.02,VWS V14.01,2013-08-19 11:45:00,
2013-08-19 04:50:00,74.9,66.8,29.24,NNW,336,0.0,1.0,76,0.00,,---,0.02,VWS V14.01,2013-08-19 11:50:00,
2013-08-19 04:55:00,75.1,67.0,29.24,NNW,335,0.0,0.0,76,0.00,,---,0.02,VWS V14.01,2013-08-19 11:55:00,
2013-08-19 05:00:00,75.3,67.2,29.24,NNW,335,0.0,0.0,76,0.00,,---,0.02,VWS V14.01,2013-08-19 12:00:00,
2013-08-19 05:05:00,75.3,67.2,29.24,NNW,335,0.0,0.0,76,0.00,,---,0.02,VWS V14.01,2013-08-19 12:05:00,
2013-08-19 05:10:00,75.3,67.2,29.24,NNW,335,0.0,0.0,76,0.00,,---,0.02,VWS V14.01,2013-08-19 12:10:00,
2013-08-19 05:15:00,75.3,67.2,29.25,NNW,336,0.0,0.0,76,0.00,,---,0.02,VWS V14.01,2013-08-19 12:15:00,
2013-08-19 05:20:00,75.3,67.2,29.25,NNW,336,0.0,0.0,76,0.00,,---,0.02,VWS V14.01,2013-08-19 12:20:00,
2013-08-19 05:25:00,75.3,67.2,29.25,West,272,0.0,0.0,76,0.00,,---,0.02,VWS V14.01,2013-08-19 12:25:00,
2013-08-19 05:30:00,75.3,67.2,29.25,West,271,0.0,0.0,76,0.00,,---,0.02,VWS V14.01,2013-08-19 12:30:00,
2013-08-19 05:35:00,75.3,67.2,29.25,West,271,0.0,0.0,76,0.00,,---,0.02,VWS V14.01,2013-08-19 12:35:00,
2013-08-19 05:40:00,75.3,67.2,29.25,West,271,0.0,0.0,76,0.00,,---,0.02,VWS V14.01,2013-08-19 12:40:00,
2013-08-19 05:45:00,75.1,68.2,29.24,West,271,0.0,0.0,79,0.00,,---,0.02,VWS V14.01,2013-08-19 12:45:00,
2013-08-19 05:50:00,75.1,67.8,29.24,West,271,0.0,0.0,78,0.00,,---,0.02,VWS V14.01,2013-08-19 12:50:00,
2013-08-19 05:55:00,75.1,67.8,29.24,West,271,0.0,0.0,78,0.00,,---,0.02,VWS V14.01,2013-08-19 12:55:00,
2013-08-19 06:00:00,74.9,67.6,29.24,West,271,0.0,0.0,78,0.00,,---,0.02,VWS V14.01,2013-08-19 13:00:00,
2013-08-19 06:05:00,74.9,67.6,29.24,West,271,0.0,0.0,78,0.00,,---,0.02,VWS V14.01,2013-08-19 13:05:00,
2013-08-19 06:10:00,74.9,67.9,29.24,West,271,0.0,0.0,79,0.00,,---,0.02,VWS V14.01,2013-08-19 13:10:00,
2013-08-19 06:15:00,74.7,67.8,29.23,West,272,0.0,0.0,79,0.00,,---,0.02,VWS V14.01,2013-08-19 13:15:00,
2013-08-19 06:20:00,74.7,67.8,29.23,West,272,0.0,0.0,79,0.00,,---,0.02,VWS V14.01,2013-08-19 13:20:00,
2013-08-19 06:25:00,74.7,67.8,29.23,West,272,0.0,0.0,79,0.00,,---,0.02,VWS V14.01,2013-08-19 13:25:00,
2013-08-19 06:30:00,74.7,68.1,29.23,West,272,0.0,0.0,80,0.00,,---,0.02,VWS V14.01,2013-08-19 13:30:00,
2013-08-19 06:35:00,74.6,68.0,29.23,West,272,0.0,0.0,80,0.00,,---,0.02,VWS V14.01,2013-08-19 13:35:00,
2013-08-19 06:40:00,74.4,67.5,29.23,West,272,0.0,0.0,79,0.00,,---,0.02,VWS V14.01,2013-08-19 13:40:00,
2013-08-19 06:45:00,74.2,67.3,29.24,West,272,0.0,0.0,79,0.00,,---,0.02,VWS V14.01,2013-08-19 13:45:00,
2013-08-19 06:50:00,74.2,67.3,29.24,West,272,0.0,0.0,79,0.00,,---,0.02,VWS V14.01,2013-08-19 13:50:00,
2013-08-19 06:55:00,74.4,67.5,29.24,West,272,0.0,0.0,79,0.00,,---,0.02,VWS V14.01,2013-08-19 13:55:00,
2013-08-19 07:00:00,74.4,67.5,29.24,West,272,0.0,0.0,79,0.00,,---,0.02,VWS V14.01,2013-08-19 14:00:00,
2013-08-19 07:05:00,74.6,68.4,29.24,West,272,0.0,0.0,81,0.00,,---,0.02,VWS V14.01,2013-08-19 14:05:00,
2013-08-19 07:10:00,75.1,68.9,29.24,WNW,291,0.0,0.0,81,0.00,,---,0.02,VWS V14.01,2013-08-19 14:10:00,
2013-08-19 07:15:00,75.4,69.2,29.23,West,271,0.0,0.0,81,0.00,,---,0.02,VWS V14.01,2013-08-19 14:15:00,
2013-08-19 07:20:00,76.0,68.3,29.23,ESE,117,0.0,0.0,77,0.00,,---,0.02,VWS V14.01,2013-08-19 14:20:00,
2013-08-19 07:25:00,76.7,68.9,29.23,SE,138,0.0,0.0,77,0.00,,---,0.02,VWS V14.01,2013-08-19 14:25:00,
2013-08-19 07:30:00,77.6,69.8,29.23,SE,124,0.0,0.0,77,0.00,,---,0.02,VWS V14.01,2013-08-19 14:30:00,
2013-08-19 07:35:00,78.3,66.9,29.23,ESE,104,0.0,0.0,68,0.00,,---,0.02,VWS V14.01,2013-08-19 14:35:00,
2013-08-19 07:40:00,78.8,67.4,29.23,NNE,27,0.0,0.0,68,0.00,,---,0.02,VWS V14.01,2013-08-19 14:40:00,
2013-08-19 07:45:00,79.0,67.6,29.23,NNE,27,0.0,0.0,68,0.00,,---,0.02,VWS V14.01,2013-08-19 14:45:00,
2013-08-19 07:50:00,79.6,68.1,29.23,East,95,0.0,0.0,68,0.00,,---,0.02,VWS V14.01,2013-08-19 14:50:00,
2013-08-19 07:55:00,79.6,66.8,29.23,ENE,58,0.0,0.0,65,0.00,,---,0.02,VWS V14.01,2013-08-19 14:55:00,
2013-08-19 08:00:00,79.2,66.4,29.23,ENE,58,0.0,0.0,65,0.00,,---,0.02,VWS V14.01,2013-08-19 15:00:00,
2013-08-19 08:05:00,79.6,66.4,29.23,ENE,58,0.0,0.0,64,0.00,,---,0.02,VWS V14.01,2013-08-19 15:05:00,
2013-08-19 08:10:00,79.8,66.1,29.23,ENE,58,0.0,0.0,63,0.00,,---,0.02,VWS V14.01,2013-08-19 15:10:00,
2013-08-19 08:15:00,80.1,66.4,29.25,SSW,200,0.0,0.0,63,0.00,,---,0.02,VWS V14.01,2013-08-19 15:15:00,
2013-08-19 08:20:00,80.1,66.4,29.25,SSW,202,0.0,0.0,63,0.00,,---,0.02,VWS V14.01,2013-08-19 15:20:00,
2013-08-19 08:25:00,80.7,65.1,29.25,SSW,210,2.0,3.0,59,0.00,,---,0.02,VWS V14.01,2013-08-19 15:25:00,
2013-08-19 08:30:00,80.7,64.6,29.25,SW,220,1.0,3.0,58,0.00,,---,0.02,VWS V14.01,2013-08-19 15:30:00,
2013-08-19 08:35:00,81.1,64.9,29.25,SW,220,1.0,2.0,58,0.00,,---,0.02,VWS V14.01,2013-08-19 15:35:00,
2013-08-19 08:40:00,81.6,65.4,29.25,SW,220,2.0,2.0,58,0.00,,---,0.02,VWS V14.01,2013-08-19 15:40:00,
2013-08-19 08:45:00,81.6,65.4,29.24,SW,220,0.0,2.0,58,0.00,,---,0.02,VWS V14.01,2013-08-19 15:45:00,
2013-08-19 08:50:00,83.2,66.9,29.24,South,184,0.0,0.0,58,0.00,,---,0.02,VWS V14.01,2013-08-19 15:50:00,
2013-08-19 08:55:00,83.6,63.0,29.24,South,184,0.0,0.0,50,0.00,,---,0.02,VWS V14.01,2013-08-19 15:55:00,
2013-08-19 09:00:00,83.8,63.8,29.24,South,185,0.0,0.0,51,0.00,,---,0.02,VWS V14.01,2013-08-19 16:00:00,
2013-08-19 09:05:00,84.0,63.9,29.24,SSE,150,0.0,2.0,51,0.00,,---,0.02,VWS V14.01,2013-08-19 16:05:00,
2013-08-19 09:10:00,84.0,63.9,29.24,SSE,150,0.0,1.0,51,0.00,,---,0.02,VWS V14.01,2013-08-19 16:10:00,
2013-08-19 09:15:00,84.1,64.0,29.24,SSE,157,0.0,1.0,51,0.00,,---,0.02,VWS V14.01,2013-08-19 16:15:00,
2013-08-19 09:20:00,84.7,64.6,29.24,SSE,162,0.0,0.0,51,0.00,,---,0.02,VWS V14.01,2013-08-19 16:20:00,
2013-08-19 09:25:00,84.9,63.6,29.24,WSW,243,1.0,2.0,49,0.00,,---,0.02,VWS V14.01,2013-08-19 16:25:00,
2013-08-19 09:30:00,85.3,63.4,29.25,WSW,247,0.0,1.0,48,0.00,,---,0.02,VWS V14.01,2013-08-19 16:30:00,
2013-08-19 09:35:00,85.5,63.6,29.25,WSW,246,0.0,2.0,48,0.00,,---,0.02,VWS V14.01,2013-08-19 16:35:00,
2013-08-19 09:40:00,85.9,64.0,29.25,WSW,253,2.0,3.0,48,0.00,,---,0.02,VWS V14.01,2013-08-19 16:40:00,
2013-08-19 09:45:00,85.9,64.0,29.24,WNW,292,2.0,5.0,48,0.00,,---,0.02,VWS V14.01,2013-08-19 16:45:00,
2013-08-19 09:50:00,85.9,64.0,29.24,NNW,342,0.0,2.0,48,0.00,,---,0.02,VWS V14.01,2013-08-19 16:50:00,
2013-08-19 09:55:00,87.4,65.3,29.24,NE,56,0.0,4.0,48,0.00,,---,0.02,VWS V14.01,2013-08-19 16:55:00,
2013-08-19 10:00:00,87.8,60.5,29.24,ENE,68,0.0,3.0,40,0.00,,---,0.02,VWS V14.01,2013-08-19 17:00:00,
2013-08-19 10:05:00,87.6,60.3,29.24,ENE,61,0.0,5.0,40,0.00,,---,0.02,VWS V14.01,2013-08-19 17:05:00,
2013-08-19 10:10:00,87.6,60.3,29.24,ENE,72,0.0,2.0,40,0.00,,---,0.02,VWS V14.01,2013-08-19 17:10:00,
2013-08-19 10:15:00,87.6,59.6,29.24,ENE,72,2.0,4.0,39,0.00,,---,0.02,VWS V14.01,2013-08-19 17:15:00,
2013-08-19 10:20:00,87.6,61.0,29.24,East,79,0.0,7.0,41,0.00,,---,0.02,VWS V14.01,2013-08-19 17:20:00,
2013-08-19 10:25:00,87.8,59.1,29.24,SSE,150,1.0,3.0,38,0.00,,---,0.02,VWS V14.01,2013-08-19 17:25:00,
2013-08-19 10:30:00,88.0,60.0,29.24,East,88,0.0,7.0,39,0.00,,---,0.02,VWS V14.01,2013-08-19 17:30:00,
2013-08-19 10:35:00,88.0,59.2,29.24,North,4,1.0,6.0,38,0.00,,---,0.02,VWS V14.01,2013-08-19 17:35:00,
2013-08-19 10:40:00,88.4,60.3,29.24,SE,134,3.0,3.0,39,0.00,,---,0.02,VWS V14.01,2013-08-19 17:40:00,
2013-08-19 10:45:00,88.8,60.7,29.24,ENE,78,2.0,3.0,39,0.00,,---,0.02,VWS V14.01,2013-08-19 17:45:00,
2013-08-19 10:50:00,88.8,60.7,29.24,ENE,78,2.0,2.0,39,0.00,,---,0.02,VWS V14.01,2013-08-19 17:50:00,
2013-08-19 10:55:00,89.3,61.1,29.24,WSW,237,0.0,2.0,39,0.00,,---,0.02,VWS V14.01,2013-08-19 17:55:00,
2013-08-19 11:00:00,89.7,57.6,29.23,North,356,1.0,7.0,34,0.00,,---,0.02,VWS V14.01,2013-08-19 18:00:00,
2013-08-19 11:05:00,89.7,57.6,29.23,NE,56,0.0,6.0,34,0.00,,---,0.02,VWS V14.01,2013-08-19 18:05:00,
2013-08-19 11:10:00,89.5,57.5,29.23,North,359,3.0,8.0,34,0.00,,---,0.02,VWS V14.01,2013-08-19 18:10:00,
2013-08-19 11:15:00,89.3,57.3,29.24,NNE,17,1.0,6.0,34,0.00,,---,0.02,VWS V14.01,2013-08-19 18:15:00,
2013-08-19 11:20:00,90.1,57.2,29.24,SE,130,0.0,3.0,33,0.00,,---,0.02,VWS V14.01,2013-08-19 18:20:00,
2013-08-19 11:25:00,90.3,57.3,29.24,NNW,343,5.0,10.0,33,0.00,,---,0.02,VWS V14.01,2013-08-19 18:25:00,
2013-08-19 11:30:00,89.9,57.0,29.23,ESE,112,5.0,6.0,33,0.00,,---,0.02,VWS V14.01,2013-08-19 18:30:00,
2013-08-19 11:35:00,89.9,56.1,29.23,SSE,165,3.0,5.0,32,0.00,,---,0.02,VWS V14.01,2013-08-19 18:35:00,
2013-08-19 11:40:00,90.1,56.3,29.23,NNE,13,0.0,7.0,32,0.00,,---,0.02,VWS V14.01,2013-08-19 18:40:00,
2013-08-19 11:45:00,90.3,56.5,29.23,ESE,110,0.0,6.0,32,0.00,,---,0.02,VWS V14.01,2013-08-19 18:45:00,
2013-08-19 11:50:00,90.5,55.8,29.23,SW,216,2.0,5.0,31,0.00,,---,0.02,VWS V14.01,2013-08-19 18:50:00,
2013-08-19 11:55:00,90.1,55.4,29.23,SW,222,4.0,8.0,31,0.00,,---,0.02,VWS V14.01,2013-08-19 18:55:00,
2013-08-19 12:00:00,90.5,55.8,29.22,East,86,1.0,7.0,31,0.00,,---,0.02,VWS V14.01,2013-08-19 19:00:00,
2013-08-19 12:05:00,91.1,54.5,29.22,East,90,2.0,5.0,29,0.00,,---,0.02,VWS V14.01,2013-08-19 19:05:00,
2013-08-19 12:10:00,91.6,54.9,29.22,ENE,68,1.0,6.0,29,0.00,,---,0.02,VWS V14.01,2013-08-19 19:10:00,
2013-08-19 12:15:00,91.9,54.2,29.22,WSW,248,5.0,6.0,28,0.00,,---,0.02,VWS V14.01,2013-08-19 19:15:00,
2013-08-19 12:20:00,91.7,54.0,29.22,South,180,3.0,7.0,28,0.00,,---,0.02,VWS V14.01,2013-08-19 19:20:00,
2013-08-19 12:25:00,92.2,55.4,29.22,ESE,112,1.0,2.0,29,0.00,,---,0.02,VWS V14.01,2013-08-19 19:25:00,
2013-08-19 12:30:00,92.3,54.5,29.22,SSE,167,0.0,1.0,28,0.00,,---,0.02,VWS V14.01,2013-08-19 19:30:00,
2013-08-19 12:31:00,92.2,55.4,29.22,ESE,112,1.0,2.0,29,0.00,,---,0.02,VWS V14.01,2013-08-19 19:31:00,
2013-08-19 12:35:00,92.5,53.7,29.22,East,93,3.0,3.0,27,0.00,,---,0.02,VWS V14.01,2013-08-19 19:35:00,
2013-08-19 12:40:00,92.5,54.7,29.22,East,88,1.0,3.0,28,0.00,,---,0.02,VWS V14.01,2013-08-19 19:40:00,
2013-08-19 12:50:00,93.2,55.3,29.21,ENE,58,2.0,2.0,28,0.00,,---,0.02,VWS V14.01,2013-08-19 19:50:00,
2013-08-19 12:55:00,93.2,54.3,29.21,WNW,301,0.0,2.0,27,0.00,,---,0.02,VWS V14.01,2013-08-19 19:55:00,
2013-08-19 13:00:00,93.4,55.5,29.21,North,0,1.0,3.0,28,0.00,,---,0.02,VWS V14.01,2013-08-19 20:00:00,
2013-08-19 13:10:00,93.2,54.3,29.21,SSW,205,1.0,6.0,27,0.00,,---,0.02,VWS V14.01,2013-08-19 20:10:00,
2013-08-19 13:20:00,93.6,54.6,29.20,WNW,296,0.0,3.0,27,0.00,,---,0.02,VWS V14.01,2013-08-19 20:20:00,
2013-08-19 13:25:00,93.6,54.6,29.20,South,171,0.0,3.0,27,0.00,,---,0.02,VWS V14.01,2013-08-19 20:25:00,
2013-08-19 13:30:00,94.0,55.0,29.20,SSW,210,0.0,2.0,27,0.00,,---,0.02,VWS V14.01,2013-08-19 20:30:00,
2013-08-19 13:35:00,94.3,55.2,29.20,ESE,103,2.0,6.0,27,0.00,,---,0.02,VWS V14.01,2013-08-19 20:35:00,
2013-08-19 13:45:00,94.7,55.6,29.19,East,97,2.0,2.0,27,0.00,,---,0.02,VWS V14.01,2013-08-19 20:45:00,
2013-08-19 13:55:00,94.7,55.6,29.19,WSW,244,6.0,6.0,27,0.00,,---,0.02,VWS V14.01,2013-08-19 20:55:00,
2013-08-19 14:00:00,95.4,56.2,29.18,SSE,167,2.0,6.0,27,0.00,,---,0.02,VWS V14.01,2013-08-19 21:00:00,
2013-08-19 14:10:00,94.3,56.2,29.18,SW,232,2.0,6.0,28,0.00,,---,0.02,VWS V14.01,2013-08-19 21:10:00,
2013-08-19 14:15:00,94.5,56.4,29.17,NNW,333,3.0,8.0,28,0.00,,---,0.02,VWS V14.01,2013-08-19 21:15:00,
2013-08-19 14:25:00,94.5,56.4,29.17,SW,232,6.0,6.0,28,0.00,,---,0.02,VWS V14.01,2013-08-19 21:25:00,
2013-08-19 14:35:00,94.9,56.7,29.16,NNW,340,5.0,5.0,28,0.00,,---,0.02,VWS V14.01,2013-08-19 21:35:00,
2013-08-19 14:40:00,94.7,56.6,29.16,SSW,212,1.0,5.0,28,0.00,,---,0.02,VWS V14.01,2013-08-19 21:40:00,
2013-08-19 14:50:00,94.7,56.6,29.16,NW,325,4.0,6.0,28,0.00,,---,0.02,VWS V14.01,2013-08-19 21:50:00,
2013-08-19 14:55:00,94.5,56.4,29.16,West,277,6.0,6.0,28,0.00,,---,0.02,VWS V14.01,2013-08-19 21:55:00,
2013-08-19 15:00:00,94.5,56.4,29.15,NW,325,7.0,7.0,28,0.00,,---,0.02,VWS V14.01,2013-08-19 22:00:00,
2013-08-19 15:10:00,94.5,56.4,29.15,WNW,299,0.0,2.0,28,0.00,,---,0.02,VWS V14.01,2013-08-19 22:10:00,
2013-08-19 15:15:00,94.7,56.6,29.14,NW,305,2.0,2.0,28,0.00,,---,0.02,VWS V14.01,2013-08-19 22:15:00,
2013-08-19 15:20:00,94.9,55.7,29.14,SSE,150,0.0,6.0,27,0.00,,---,0.02,VWS V14.01,2013-08-19 22:20:00,
2013-08-19 15:25:00,94.9,55.7,29.14,WSW,237,1.0,5.0,27,0.00,,---,0.02,VWS V14.01,2013-08-19 22:25:00,
2013-08-19 15:35:00,95.4,56.2,29.14,NW,313,1.0,2.0,27,0.00,,---,0.02,VWS V14.01,2013-08-19 22:35:00,
2013-08-19 15:40:00,95.1,55.9,29.14,WSW,254,2.0,6.0,27,0.00,,---,0.02,VWS V14.01,2013-08-19 22:40:00,
2013-08-19 15:50:00,95.1,55.9,29.13,West,281,3.0,6.0,27,0.00,,---,0.02,VWS V14.01,2013-08-19 22:50:00,
2013-08-19 15:55:00,95.4,56.2,29.13,West,270,7.0,8.0,27,0.00,,---,0.02,VWS V14.01,2013-08-19 22:55:00,
2013-08-19 16:00:00,95.4,56.2,29.12,ESE,116,4.0,7.0,27,0.00,,---,0.02,VWS V14.01,2013-08-19 23:00:00,
2013-08-19 16:10:00,95.9,56.6,29.12,SSW,206,5.0,5.0,27,0.00,,---,0.02,VWS V14.01,2013-08-19 23:10:00,
2013-08-19 16:20:00,96.1,56.7,29.12,SSE,154,2.0,5.0,27,0.00,,---,0.02,VWS V14.01,2013-08-19 23:20:00,
2013-08-19 16:30:00,97.1,56.5,29.11,SE,133,2.0,2.0,26,0.00,,---,0.02,VWS V14.01,2013-08-19 23:30:00,
2013-08-19 16:35:00,97.1,56.5,29.11,SW,215,6.0,6.0,26,0.00,,---,0.02,VWS V14.01,2013-08-19 23:35:00,
2013-08-19 16:40:00,97.1,55.5,29.11,SSE,158,1.0,6.0,25,0.00,,---,0.02,VWS V14.01,2013-08-19 23:40:00,
2013-08-19 16:50:00,96.6,56.1,29.10,NW,316,3.0,8.0,26,0.00,,---,0.02,VWS V14.01,2013-08-19 23:50:00,
2013-08-19 17:00:00,95.9,56.6,29.10,SSE,151,0.0,0.0,27,0.00,,---,0.02,VWS V14.01,2013-08-20 00:00:00,
2013-08-19 17:05:00,95.6,56.3,29.10,North,357,0.0,3.0,27,0.00,,---,0.02,VWS V14.01,2013-08-20 00:05:00,
2013-08-19 17:10:00,95.4,56.2,29.10,North,357,0.0,5.0,27,0.00,,---,0.02,VWS V14.01,2013-08-20 00:10:00,
2013-08-19 17:20:00,95.1,56.9,29.09,SE,145,0.0,1.0,28,0.00,,---,0.02,VWS V14.01,2013-08-20 00:20:00,
2013-08-19 17:30:00,94.9,54.7,29.09,SE,130,0.0,0.0,26,0.00,,---,0.02,VWS V14.01,2013-08-20 00:30:00,
2013-08-19 17:35:00,94.9,55.7,29.09,SE,136,0.0,0.0,27,0.00,,---,0.02,VWS V14.01,2013-08-20 00:35:00,
2013-08-19 17:45:00,94.9,54.7,29.09,SSE,151,2.0,2.0,26,0.00,,---,0.02,VWS V14.01,2013-08-20 00:45:00,
2013-08-19 17:50:00,94.9,54.7,29.09,SE,134,0.0,2.0,26,0.00,,---,0.02,VWS V14.01,2013-08-20 00:50:00,
2013-08-19 17:55:00,94.7,55.6,29.09,SSW,196,0.0,0.0,27,0.00,,---,0.02,VWS V14.01,2013-08-20 00:55:00,
2013-08-19 18:00:00,94.7,55.6,29.08,SE,141,0.0,0.0,27,0.00,,---,0.02,VWS V14.01,2013-08-20 01:00:00,
2013-08-19 18:10:00,94.5,55.4,29.08,SW,217,0.0,0.0,27,0.00,,---,0.02,VWS V14.01,2013-08-20 01:10:00,
2013-08-19 18:15:00,94.5,55.4,29.08,WSW,254,0.0,0.0,27,0.00,,---,0.02,VWS V14.01,2013-08-20 01:15:00,
2013-08-19 18:20:00,94.3,55.2,29.08,WSW,256,0.0,0.0,27,0.00,,---,0.02,VWS V14.01,2013-08-20 01:20:00,
2013-08-19 18:30:00,94.5,55.4,29.08,WSW,257,0.0,0.0,27,0.00,,---,0.02,VWS V14.01,2013-08-20 01:30:00,
2013-08-19 18:40:00,94.7,55.6,29.08,South,184,0.0,0.0,27,0.00,,---,0.02,VWS V14.01,2013-08-20 01:40:00,
2013-08-19 18:45:00,94.5,55.4,29.08,South,186,0.0,0.0,27,0.00,,---,0.02,VWS V14.01,2013-08-20 01:45:00,
2013-08-19 18:50:00,94.5,55.4,29.08,SE,124,0.0,0.0,27,0.00,,---,0.02,VWS V14.01,2013-08-20 01:50:00,
2013-08-19 19:00:00,94.0,55.0,29.08,ESE,117,0.0,0.0,27,0.00,,---,0.02,VWS V14.01,2013-08-20 02:00:00,
2013-08-19 19:10:00,93.6,55.6,29.08,SE,143,0.0,0.0,28,0.00,,---,0.02,VWS V14.01,2013-08-20 02:10:00,
2013-08-19 19:15:00,93.4,55.5,29.07,SE,136,0.0,0.0,28,0.00,,---,0.02,VWS V14.01,2013-08-20 02:15:00,
2013-08-19 19:25:00,92.9,55.0,29.07,SE,136,0.0,0.0,28,0.00,,---,0.02,VWS V14.01,2013-08-20 02:25:00,
2013-08-19 19:30:00,92.7,54.8,29.08,SE,133,0.0,0.0,28,0.00,,---,0.02,VWS V14.01,2013-08-20 02:30:00,
2013-08-19 19:35:00,92.7,54.8,29.08,SE,133,0.0,0.0,28,0.00,,---,0.02,VWS V14.01,2013-08-20 02:35:00,
2013-08-19 19:45:00,92.5,55.7,29.08,SE,138,0.0,0.0,29,0.00,,---,0.02,VWS V14.01,2013-08-20 02:45:00,
2013-08-19 19:55:00,92.3,55.5,29.08,SSE,152,0.0,0.0,29,0.00,,---,0.02,VWS V14.01,2013-08-20 02:55:00,
2013-08-19 20:00:00,92.3,56.4,29.08,SSE,160,0.0,0.0,30,0.00,,---,0.02,VWS V14.01,2013-08-20 03:00:00,
2013-08-19 20:05:00,92.3,55.5,29.08,ESE,117,0.0,0.0,29,0.00,,---,0.02,VWS V14.01,2013-08-20 03:05:00,
2013-08-19 20:15:00,92.1,56.2,29.08,SE,124,0.0,0.0,30,0.00,,---,0.02,VWS V14.01,2013-08-20 03:15:00,
2013-08-19 20:20:00,91.6,55.8,29.08,ESE,123,0.0,0.0,30,0.00,,---,0.02,VWS V14.01,2013-08-20 03:20:00,
2013-08-19 20:25:00,91.8,56.9,29.08,ESE,123,0.0,0.0,31,0.00,,---,0.02,VWS V14.01,2013-08-20 03:25:00,
2013-08-19 20:35:00,91.6,55.8,29.09,ESE,123,0.0,0.0,30,0.00,,---,0.02,VWS V14.01,2013-08-20 03:35:00,
2013-08-19 20:40:00,91.6,56.7,29.09,ESE,123,0.0,0.0,31,0.00,,---,0.02,VWS V14.01,2013-08-20 03:40:00,
2013-08-19 20:45:00,91.4,56.5,29.09,ESE,121,0.0,0.0,31,0.00,,---,0.02,VWS V14.01,2013-08-20 03:45:00,
2013-08-19 20:50:00,91.6,56.7,29.09,South,188,0.0,0.0,31,0.00,,---,0.02,VWS V14.01,2013-08-20 03:50:00,
2013-08-19 21:00:00,92.9,56.0,29.09,ESE,117,2.0,7.0,29,0.00,,---,0.02,VWS V14.01,2013-08-20 04:00:00,
2013-08-19 21:05:00,92.7,55.8,29.09,WSW,248,0.0,2.0,29,0.00,,---,0.02,VWS V14.01,2013-08-20 04:05:00,
2013-08-19 21:10:00,92.5,55.7,29.09,SSE,148,0.0,0.0,29,0.00,,---,0.02,VWS V14.01,2013-08-20 04:10:00,
2013-08-19 21:15:00,92.3,55.5,29.08,ESE,119,0.0,0.0,29,0.00,,---,0.02,VWS V14.01,2013-08-20 04:15:00,
2013-08-19 21:20:00,92.1,58.0,29.08,SE,143,0.0,0.0,32,0.00,,---,0.02,VWS V14.01,2013-08-20 04:20:00,
2013-08-19 21:25:00,91.6,57.6,29.08,ESE,121,0.0,0.0,32,0.00,,---,0.02,VWS V14.01,2013-08-20 04:25:00,
2013-08-19 21:30:00,91.6,58.5,29.08,SSE,167,0.0,0.0,33,0.00,,---,0.02,VWS V14.01,2013-08-20 04:30:00,
2013-08-19 21:40:00,91.4,59.1,29.08,SSE,162,0.0,0.0,34,0.00,,---,0.02,VWS V14.01,2013-08-20 04:40:00,
2013-08-19 21:45:00,91.4,59.1,29.08,SSE,152,0.0,0.0,34,0.00,,---,0.02,VWS V14.01,2013-08-20 04:45:00,
2013-08-19 21:50:00,90.7,59.3,29.08,SSE,150,0.0,0.0,35,0.00,,---,0.02,VWS V14.01,2013-08-20 04:50:00,
2013-08-19 21:55:00,90.5,59.9,29.08,SSE,148,0.0,0.0,36,0.00,,---,0.02,VWS V14.01,2013-08-20 04:55:00,
2013-08-19 22:00:00,90.3,60.5,29.09,West,277,0.0,0.0,37,0.00,,---,0.02,VWS V14.01,2013-08-20 05:00:00,
2013-08-19 22:05:00,90.5,59.9,29.09,West,274,0.0,1.0,36,0.00,,---,0.02,VWS V14.01,2013-08-20 05:05:00,
2013-08-19 22:10:00,90.5,59.9,29.09,WNW,296,0.0,1.0,36,0.00,,---,0.02,VWS V14.01,2013-08-20 05:10:00,
2013-08-19 22:20:00,90.3,59.8,29.08,West,260,0.0,1.0,36,0.00,,---,0.02,VWS V14.01,2013-08-20 05:20:00,
2013-08-19 22:25:00,90.1,60.3,29.08,SSW,213,0.0,0.0,37,0.00,,---,0.02,VWS V14.01,2013-08-20 05:25:00,
2013-08-19 22:35:00,89.7,60.0,29.09,SSW,205,0.0,0.0,37,0.00,,---,0.02,VWS V14.01,2013-08-20 05:35:00,
2013-08-19 22:40:00,89.5,60.6,29.09,SSW,195,0.0,0.0,38,0.00,,---,0.02,VWS V14.01,2013-08-20 05:40:00,
2013-08-19 22:45:00,89.5,60.6,29.08,SSW,195,0.0,0.0,38,0.00,,---,0.02,VWS V14.01,2013-08-20 05:45:00,
2013-08-19 22:50:00,88.8,60.7,29.08,SSW,200,0.0,0.0,39,0.00,,---,0.02,VWS V14.01,2013-08-20 05:50:00,
2013-08-19 22:55:00,88.6,60.5,29.08,SSW,199,0.0,0.0,39,0.00,,---,0.02,VWS V14.01,2013-08-20 05:55:00,
2013-08-19 23:00:00,88.2,61.5,29.09,SSW,196,0.0,0.0,41,0.00,,---,0.02,VWS V14.01,2013-08-20 06:00:00,
2013-08-19 23:10:00,87.6,61.0,29.09,SSW,196,0.0,0.0,41,0.00,,---,0.02,VWS V14.01,2013-08-20 06:10:00,
2013-08-19 23:15:00,87.4,60.8,29.08,SSW,205,0.0,0.0,41,0.00,,---,0.02,VWS V14.01,2013-08-20 06:15:00,
2013-08-19 23:25:00,87.0,61.2,29.08,SSW,206,0.0,0.0,42,0.00,,---,0.02,VWS V14.01,2013-08-20 06:25:00,
2013-08-19 23:30:00,86.7,61.5,29.08,SSW,202,0.0,0.0,43,0.00,,---,0.02,VWS V14.01,2013-08-20 06:30:00,
2013-08-19 23:35:00,86.5,61.4,29.08,SSW,209,0.0,0.0,43,0.00,,---,0.02,VWS V14.01,2013-08-20 06:35:00,
2013-08-19 23:40:00,86.3,61.2,29.08,SSW,200,0.0,0.0,43,0.00,,---,0.02,VWS V14.01,2013-08-20 06:40:00,
2013-08-19 23:50:00,86.1,61.0,29.09,SSE,150,0.0,0.0,43,0.00,,---,0.02,VWS V14.01,2013-08-20 06:50:00,
2013-08-19 23:55:00,85.9,60.8,29.09,SSE,150,0.0,0.0,43,0.00,,---,0.02,VWS V14.01,2013-08-20 06:55:00,